Location: Baix
(44.7118°N, 4.7648°E)
Time: 10:46:53
(UTC+00:00)

Vanguard 1 Rocket - Visible Passes

Search period start: 03 October 2022 00:00
Search period end: 13 October 2022 00:00
Orbit: 651 x 4225 km, 34.3° (Epoch: 02 October)

Date Brightness Start Highest point End Pass type
(mag) Time Alt. Az. Time Alt. Az. Time Alt. Az.
03 Oct 9.8 18:39:37 10° SW 18:59:37 43° SSE 19:07:04 26° ESE visible
03 Oct 9.6 21:10:53 10° WSW 21:24:20 45° SW 21:24:20 45° SW visible
04 Oct 10.4 17:25:52 10° SSW 17:46:22 37° SSE 17:59:35 10° E visible
04 Oct 9.3 19:55:38 10° WSW 20:14:47 52° S 20:17:00 48° SSE visible
04 Oct 10.4 22:27:57 10° W 22:34:16 25° WSW 22:34:16 25° WSW visible
05 Oct 9.8 18:40:38 10° SW 19:01:53 49° SSE 19:09:38 28° ESE visible
05 Oct 9.6 21:12:41 10° WSW 21:26:54 47° SW 21:26:54 47° SW visible
06 Oct 10.4 17:26:24 10° SW 17:48:29 43° SSE 18:02:15 11° E visible
06 Oct 9.4 19:57:10 10° WSW 20:17:07 55° S 20:19:30 51° SSE visible
06 Oct 10.4 22:30:01 10° W 22:36:46 25° WSW 22:36:46 25° WSW visible
07 Oct 9.8 18:41:52 10° WSW 19:04:05 54° S 19:12:05 30° ESE visible
07 Oct 9.7 21:14:33 10° W 21:29:21 47° SW 21:29:21 47° SW visible
08 Oct 10.4 17:27:17 10° SW 17:50:32 49° SSE 18:04:39 12° E visible
08 Oct 9.4 19:58:50 10° WSW 20:19:24 57° S 20:21:55 52° SSE visible
08 Oct 10.5 22:32:08 10° W 22:39:10 25° WSW 22:39:10 25° WSW visible
09 Oct 9.8 18:43:18 10° WSW 19:06:17 57° S 19:14:28 31° ESE visible
09 Oct 9.8 21:16:27 10° W 21:31:43 46° SW 21:31:43 46° SW visible
10 Oct 10.4 17:28:25 10° SW 17:52:34 54° SSE 18:07:00 13° E visible
10 Oct 9.5 20:00:35 10° W 20:21:39 57° S 20:24:15 52° SSE visible
10 Oct 10.6 22:34:19 10° W 22:41:30 24° WSW 22:41:30 24° WSW visible
11 Oct 9.8 18:44:53 10° WSW 19:08:27 60° S 19:16:46 33° ESE visible
11 Oct 9.9 21:18:23 10° W 21:34:02 44° SW 21:34:02 44° SW visible
12 Oct 10.4 17:29:48 10° WSW 17:54:35 58° S 18:09:18 14° E visible
12 Oct 9.6 20:02:23 10° W 20:23:48 56° SSW 20:26:33 51° SSE visible
12 Oct 10.7 22:36:37 10° W 22:43:48 22° WSW 22:43:48 22° WSW visible
